Location: *
(51.5000°N, 0.1100°W)
Time: 00:07:48
(UTC+00:00)

MSX - Pass Details

Date: 10 August 2024
Orbit: 895 x 904 km, 99.0° (Epoch: 09 September)

Event Time Altitude Azimuth Distance (km) Brightness Sun altitude
Rises 03:43:33 0° 9° (N) 3,545 7.7 -8.1°
Reaches altitude 10° 03:46:27 10° 355° (N) 2,600 6.7 -7.7°
Maximum altitude 03:50:47 23° 306° (NW) 1,855 5.3 -7.2°
Drops below altitude 10° 03:55:07 10° 257° (WSW) 2,588 5.7 -6.7°
Enters shadow 03:56:07 - 252° (WSW) 2,892 5.9 -6.5°
